Hamilton, OH

1:35 PM EDT on June 27, 2017 (GMT -0400)
Butler County Regional

Weather History for KHAO - September, 2013

Change the Weather History Date:

Saturday, September 21, 2013

  Actual Average (KLUK) Record (KLUK)
Temperature  
Mean Temperature 65 °F -  
Max Temperature 75 °F 76 °F 93 °F (2010)
Min Temperature 57 °F 55 °F 33 °F (1962)
Growing Degree Days 15 (Base 50)    
Moisture  
Dew Point 60 °F    
Average Humidity 86    
Maximum Humidity 100    
Minimum Humidity 43    
Precipitation  
Precipitation 0.57 in - - ()
Sea Level Pressure  
Sea Level Pressure 29.79 in    
Wind  
Wind Speed 5 mph (WNW)    
Max Wind Speed 15 mph    
Max Gust Speed 21 mph    
Visibility 7 miles    
Events Rain    
Averages and records for this station are not official NWS values.
T = Trace of Precipitation, MM = Missing Value Source: NWS Daily Summary

Daily Weather History Graph

Daily Weather History Graph

Search for Another Location

Airport or City:

Trip Planner

Search our weather history database for the weather conditions in past years. The results will help you decide how hot, cold, wet, or windy it might be!

Date:

Astronomy

Sep. 21, 2013 Rise Set
Actual Time 7:25 AM EDT 7:36 PM EDT
Civil Twilight 6:58 AM EDT 8:03 PM EDT
Nautical Twilight 6:26 AM EDT 8:34 PM EDT
Astronomical Twilight 5:54 AM EDT 9:06 PM EDT
Moon 8:47 PM EDT (9/21) 9:41 AM EDT (9/21)
Length of Visible Light 13h 04m
Length of Day
12h 11m
Waning Gibbous, 94% of the Moon is Illuminated
Sep 21
Waning Gibbous
Sep 26
Last Quarter
Oct 4
New
Oct 11
First Quarter
Oct 18
Full

Hourly Weather History & Observations

Time (EDT) Temp. Dew Point Humidity Pressure Visibility Wind Dir Wind Speed Gust Speed Precip Events Conditions
12:19 AM 69.8 °F 68.0 °F 94% 29.82 in 3.0 mi Calm Calm - 0.04 in Rain Rain
12:27 AM 69.8 °F 68.0 °F 94% 29.82 in 2.5 mi Calm Calm - 0.07 in Rain Rain
12:34 AM 69.8 °F 68.0 °F 94% 29.82 in 1.5 mi Variable 3.5 mph - 0.11 in Rain Heavy Rain
12:38 AM 69.8 °F 68.0 °F 94% 29.81 in 1.8 mi West 3.5 mph - 0.13 in Rain Heavy Rain
12:46 AM 69.8 °F 68.0 °F 94% 29.81 in 2.5 mi West 3.5 mph - 0.15 in Rain Rain
12:53 AM 69.1 °F 68.0 °F 96% 29.80 in 2.5 mi Variable 5.8 mph - 0.17 in Rain Rain
1:09 AM 68.0 °F 66.2 °F 94% 29.81 in 4.0 mi WSW 3.5 mph - 0.04 in Rain Rain
1:14 AM 68.0 °F 66.2 °F 94% 29.81 in 2.5 mi Variable 4.6 mph - 0.06 in Rain Heavy Rain
1:37 AM 68.0 °F 66.2 °F 94% 29.80 in 3.0 mi WSW 4.6 mph - 0.13 in Rain Rain
1:53 AM 68.0 °F 66.9 °F 96% 29.78 in 5.0 mi West 4.6 mph - 0.14 in Rain Light Rain
2:07 AM 68.0 °F 66.2 °F 94% 29.80 in 4.0 mi Calm Calm - 0.02 in Rain Rain
2:33 AM 68.0 °F 66.2 °F 94% 29.80 in 4.0 mi Variable 4.6 mph - 0.07 in Rain Rain
2:53 AM 66.9 °F 66.0 °F 97% 29.78 in 5.0 mi WSW 4.6 mph - 0.09 in Rain Rain
3:03 AM 66.2 °F 66.2 °F 100% 29.79 in 5.0 mi West 4.6 mph - 0.01 in Rain Light Rain
3:53 AM 66.9 °F 66.0 °F 97% 29.76 in 10.0 mi WSW 3.5 mph - 0.03 in Rain Light Rain
4:29 AM 66.2 °F 66.2 °F 100% 29.77 in 7.0 mi Variable 3.5 mph - 0.01 in Rain Light Rain
4:49 AM 66.2 °F 66.2 °F 100% 29.76 in 4.0 mi Calm Calm - 0.04 in Rain Rain
4:53 AM 66.9 °F 66.0 °F 97% 29.75 in 4.0 mi Calm Calm - 0.05 in Rain Rain
5:28 AM 66.2 °F 66.2 °F 100% 29.75 in 8.0 mi Calm Calm - 0.03 in Rain Light Rain
5:36 AM 66.2 °F 66.2 °F 100% 29.75 in 8.0 mi NNW 4.6 mph - 0.03 in Rain Light Rain
5:53 AM 64.0 °F 63.0 °F 96% 29.74 in 8.0 mi NNW 5.8 mph - 0.04 in Rain Light Rain
6:04 AM 64.4 °F 62.6 °F 94% 29.74 in 9.0 mi Calm Calm - 0.01 in Rain Light Rain
6:53 AM 63.0 °F 62.1 °F 97% 29.73 in 9.0 mi NW 8.1 mph 17.3 mph 0.03 in Rain Light Rain
7:19 AM 62.6 °F 60.8 °F 94% 29.76 in 10.0 mi NW 9.2 mph - 0.00 in Rain Light Rain
7:38 AM 60.8 °F 60.8 °F 100% 29.76 in 10.0 mi WNW 9.2 mph - 0.00 in   Overcast
7:53 AM 61.0 °F 61.0 °F 100% 29.75 in 10.0 mi WNW 8.1 mph - 0.00 in   Overcast
8:03 AM 60.8 °F 60.8 °F 100% 29.77 in 8.0 mi WNW 10.4 mph - N/A   Overcast
8:15 AM 60.8 °F 60.8 °F 100% 29.77 in 2.5 mi WNW 9.2 mph - 0.01 in Rain Light Rain
8:31 AM 60.8 °F 59.0 °F 94% 29.77 in 3.0 mi WNW 10.4 mph - 0.02 in Rain Light Rain
8:39 AM 60.8 °F 59.0 °F 94% 29.77 in 7.0 mi NW 10.4 mph - 0.02 in Rain Light Rain
8:53 AM 60.1 °F 59.0 °F 96% 29.77 in 8.0 mi WNW 5.8 mph - 0.02 in   Overcast
9:38 AM 59.0 °F 57.2 °F 94% 29.79 in 10.0 mi NW 8.1 mph - N/A   Mostly Cloudy
9:53 AM 60.1 °F 57.9 °F 93% 29.79 in 10.0 mi WNW 6.9 mph - N/A   Partly Cloudy
10:34 AM 60.8 °F 57.2 °F 88% 29.81 in 10.0 mi WNW 9.2 mph - N/A   Mostly Cloudy
10:53 AM 61.0 °F 57.9 °F 90% 29.81 in 10.0 mi WNW 9.2 mph - N/A   Mostly Cloudy
11:23 AM 62.6 °F 57.2 °F 82% 29.81 in 10.0 mi NNW 11.5 mph 19.6 mph N/A   Overcast
11:41 AM 66.2 °F 57.2 °F 73% 29.82 in 10.0 mi NNW 10.4 mph - N/A   Scattered Clouds
11:53 AM 64.0 °F 57.0 °F 78% 29.81 in 10.0 mi WNW 11.5 mph - N/A   Mostly Cloudy
12:29 PM 66.2 °F 55.4 °F 68% 29.81 in 10.0 mi NW 11.5 mph - N/A   Mostly Cloudy
12:53 PM 69.1 °F 55.9 °F 63% 29.81 in 10.0 mi NNW 10.4 mph - N/A   Scattered Clouds
1:53 PM 69.1 °F 53.1 °F 57% 29.80 in 10.0 mi NW 6.9 mph 18.4 mph N/A   Mostly Cloudy
2:53 PM 72.0 °F 50.0 °F 46% 29.79 in 10.0 mi NNW 10.4 mph - N/A   Partly Cloudy
3:53 PM 73.9 °F 50.0 °F 43% 29.79 in 10.0 mi NNW 15.0 mph 20.7 mph N/A   Mostly Cloudy
4:53 PM 71.1 °F 48.0 °F 44% 29.79 in 10.0 mi WNW 10.4 mph - N/A   Clear
5:53 PM 70.0 °F 50.0 °F 49% 29.81 in 10.0 mi NNW 6.9 mph - N/A   Overcast
6:53 PM 66.0 °F 51.1 °F 59% 29.82 in 10.0 mi NW 4.6 mph - N/A   Scattered Clouds
7:53 PM 61.0 °F 52.0 °F 72% 29.83 in 10.0 mi NW 4.6 mph - N/A   Clear
8:53 PM 57.0 °F 52.0 °F 83% 29.85 in 10.0 mi Calm Calm - N/A   Clear
9:53 PM 57.9 °F 50.0 °F 75% 29.86 in 10.0 mi NNW 5.8 mph - N/A   Clear
10:53 PM 59.0 °F 48.9 °F 69% 29.89 in 10.0 mi NNW 5.8 mph - N/A   Clear
11:53 PM 57.0 °F 48.0 °F 72% 29.90 in 10.0 mi North 4.6 mph - N/A   Clear